Key West, FL

9:41 PM EST on February 25, 2017 (GMT -0500)
Key West International

Weather History for KEYW - October, 2014

Change the Weather History Date:

Tuesday, October 14, 2014

  Actual Average Record
Temperature  
Mean Temperature 85 °F 81 °F  
Max Temperature 87 °F 85 °F 90 °F (1993)
Min Temperature 83 °F 76 °F 67 °F (1977)
Degree Days  
Heating Degree Days 0 0  
Month to date heating degree days 0 0  
Since 1 July heating degree days 0 0  
Cooling Degree Days 20 16  
Month to date cooling degree days 260 231  
Year to date cooling degree days 4347 3966  
Growing Degree Days 34 (Base 50)    
Moisture  
Dew Point 77 °F    
Average Humidity 79    
Maximum Humidity 88    
Minimum Humidity 70    
Precipitation  
Precipitation T in 0.17 in 3.77 in (1999)
Month to date precipitation 1.38 2.60  
Year to date precipitation 28.94 32.98  
Snow  
Snow 0.00 in - - ()
Month to date snowfall 0.0  
Since 1 July snowfall 0.0  
Since 1 September snowfall 0.0  
Snow Depth 0.00 in    
Sea Level Pressure  
Sea Level Pressure 29.98 in    
Wind  
Wind Speed 11 mph (SE)    
Max Wind Speed 17 mph    
Max Gust Speed 23 mph    
Visibility 10 miles    
Events      
T = Trace of Precipitation, MM = Missing Value Source: NWS Daily Summary

Daily Weather History Graph

Daily Weather History Graph

Search for Another Location

Airport or City:

Trip Planner

Search our weather history database for the weather conditions in past years. The results will help you decide how hot, cold, wet, or windy it might be!

Date:

Astronomy

Oct. 14, 2014 Rise Set
Actual Time 7:24 AM EDT 7:01 PM EDT
Civil Twilight 7:01 AM EDT 7:24 PM EDT
Nautical Twilight 6:35 AM EDT 7:50 PM EDT
Astronomical Twilight 6:08 AM EDT 8:16 PM EDT
Moon No Moon Rise 1:06 PM EDT (10/14)
Length of Visible Light 12h 22m
Length of Day
11h 36m
Waning Gibbous, 61% of the Moon is Illuminated
Oct 14
Waning Gibbous
Oct 15
Last Quarter
Oct 23
New
Oct 30
First Quarter
Nov 6
Full

Hourly Weather History & Observations

Time (EDT) Temp. Heat Index Dew Point Humidity Pressure Visibility Wind Dir Wind Speed Gust Speed Precip Events Conditions
12:53 AM 82.9 °F 90.8 °F 75.9 °F 79% 29.99 in 10.0 mi ESE 15.0 mph - N/A   Partly Cloudy
1:53 AM 82.9 °F 90.8 °F 75.9 °F 79% 29.99 in 10.0 mi ESE 16.1 mph - N/A   Partly Cloudy
2:53 AM 82.9 °F 90.8 °F 75.9 °F 79% 29.97 in 10.0 mi ESE 15.0 mph - N/A   Partly Cloudy
3:53 AM 82.9 °F 90.2 °F 75.0 °F 77% 29.96 in 10.0 mi SE 15.0 mph - N/A   Clear
4:53 AM 82.4 °F 89.5 °F 75.2 °F 79% 29.96 in 10.0 mi SE 13.8 mph - N/A   Partly Cloudy
5:53 AM 82.9 °F 91.8 °F 77.0 °F 82% 29.96 in 10.0 mi SE 12.7 mph - N/A   Partly Cloudy
6:53 AM 82.9 °F 90.8 °F 75.9 °F 79% 29.97 in 10.0 mi SE 15.0 mph - N/A   Clear
7:53 AM 82.9 °F 91.8 °F 77.0 °F 82% 29.98 in 10.0 mi SE 11.5 mph - N/A   Partly Cloudy
8:53 AM 84.0 °F 93.7 °F 77.0 °F 79% 30.00 in 10.0 mi SE 12.7 mph - N/A   Clear
9:53 AM 84.9 °F 94.1 °F 75.9 °F 74% 30.00 in 10.0 mi SE 10.4 mph - 0.00 in   Partly Cloudy
10:53 AM 86.0 °F 96.9 °F 77.0 °F 74% 30.01 in 10.0 mi SE 11.5 mph - N/A   Scattered Clouds
11:53 AM 87.1 °F 98.8 °F 77.0 °F 72% 30.01 in 10.0 mi SE 10.4 mph - N/A   Partly Cloudy
12:53 PM 86.0 °F 96.0 °F 75.9 °F 72% 29.99 in 10.0 mi SE 11.5 mph - N/A   Clear
1:53 PM 87.1 °F 99.8 °F 78.1 °F 74% 29.97 in 10.0 mi SSE 9.2 mph - N/A   Scattered Clouds
2:53 PM 86.0 °F 96.0 °F 75.9 °F 72% 29.96 in 10.0 mi SSE 10.4 mph - N/A   Clear
3:53 PM 86.0 °F 96.0 °F 75.9 °F 72% 29.94 in 10.0 mi SSE 10.4 mph - N/A   Clear
4:53 PM 86.0 °F 96.0 °F 75.9 °F 72% 29.94 in 10.0 mi SE 8.1 mph - N/A   Clear
5:53 PM 84.9 °F 94.1 °F 75.9 °F 74% 29.93 in 10.0 mi ESE 8.1 mph - N/A   Clear
6:53 PM 84.0 °F 92.6 °F 75.9 °F 76% 29.94 in 10.0 mi SE 4.6 mph - N/A   Clear
7:53 PM 82.9 °F 91.8 °F 77.0 °F 82% 29.97 in 10.0 mi ESE 5.8 mph - N/A   Clear
8:53 PM 82.9 °F 92.8 °F 78.1 °F 85% 29.99 in 10.0 mi ESE 6.9 mph - N/A   Clear
9:53 PM 82.9 °F 93.8 °F 79.0 °F 88% 30.00 in 10.0 mi ESE 6.9 mph - N/A   Partly Cloudy
10:53 PM 82.9 °F 91.8 °F 77.0 °F 82% 30.00 in 10.0 mi SE 9.2 mph - N/A   Partly Cloudy
11:53 PM 82.9 °F 92.8 °F 78.1 °F 85% 29.98 in 10.0 mi SE 9.2 mph - N/A   Scattered Clouds